Time,TemperatureF,DewpointF,PressureIn,WindDirection,WindDirectionDegrees,WindSpeedMPH,WindSpeedGustMPH,Humidity,HourlyPrecipIn,Conditions,Clouds,dailyrainin,SoftwareType,DateUTC
2013-03-14 00:00:00,30.3,20.6,30.31,WNW,292,4.0,4.0,67,0.00,,,0.00,Wunderground v.1.15,2013-03-14 04:00:00,
2013-03-14 00:05:00,30.1,20.5,30.31,West,261,5.0,7.0,67,0.00,,,0.00,Wunderground v.1.15,2013-03-14 04:05:00,
2013-03-14 00:10:00,29.7,21.8,30.31,West,275,6.0,6.0,72,0.00,,,0.00,Wunderground v.1.15,2013-03-14 04:10:00,
2013-03-14 00:20:00,28.4,23.3,30.32,West,277,5.0,5.0,81,0.00,,,0.00,Wunderground v.1.15,2013-03-14 04:20:00,
2013-03-14 00:24:00,28.2,23.4,30.32,WSW,243,3.0,5.0,82,0.00,,,0.00,Wunderground v.1.15,2013-03-14 04:24:00,
2013-03-14 00:29:00,28.2,23.4,30.32,WNW,282,2.0,2.0,82,0.00,,,0.00,Wunderground v.1.15,2013-03-14 04:29:00,
2013-03-14 00:35:00,28.2,22.8,30.32,West,274,2.0,2.0,80,0.00,,,0.00,Wunderground v.1.15,2013-03-14 04:35:00,
2013-03-14 00:45:00,28.5,22.5,30.32,WNW,282,2.0,2.0,78,0.00,,,0.00,Wunderground v.1.15,2013-03-14 04:45:00,
2013-03-14 00:50:00,28.7,22.1,30.31,WNW,298,2.0,2.0,76,0.00,,,0.00,Wunderground v.1.15,2013-03-14 04:50:00,
2013-03-14 01:00:00,28.7,22.7,30.31,West,271,3.0,3.0,78,0.00,,,0.00,Wunderground v.1.15,2013-03-14 05:00:00,
2013-03-14 01:10:00,28.1,23.0,30.31,West,263,2.0,2.0,81,0.00,,,0.00,Wunderground v.1.15,2013-03-14 05:10:00,
2013-03-14 01:19:00,27.8,23.0,30.31,West,272,1.0,3.0,82,0.00,,,0.00,Wunderground v.1.15,2013-03-14 05:19:00,
2013-03-14 01:25:00,27.6,22.8,30.31,WNW,296,1.0,3.0,82,0.00,,,0.00,Wunderground v.1.15,2013-03-14 05:25:00,
2013-03-14 01:35:00,27.6,22.8,30.32,WNW,282,2.0,2.0,82,0.00,,,0.00,Wunderground v.1.15,2013-03-14 05:35:00,
2013-03-14 01:40:00,27.5,22.7,30.32,WNW,284,2.0,2.0,82,0.00,,,0.00,Wunderground v.1.15,2013-03-14 05:40:00,
2013-03-14 01:50:00,27.5,22.4,30.32,West,267,1.0,1.0,81,0.00,,,0.00,Wunderground v.1.15,2013-03-14 05:50:00,
2013-03-14 02:00:00,27.3,22.2,30.32,West,267,1.0,1.0,81,0.00,,,0.00,Wunderground v.1.15,2013-03-14 06:00:00,
2013-03-14 02:10:00,27.3,21.9,30.32,West,267,0.0,0.0,80,0.00,,,0.00,Wunderground v.1.15,2013-03-14 06:10:00,
2013-03-14 02:15:00,27.5,22.1,30.32,West,268,0.0,0.0,80,0.00,,,0.00,Wunderground v.1.15,2013-03-14 06:15:00,
2013-03-14 02:20:00,27.5,21.8,30.32,West,268,1.0,1.0,79,0.00,,,0.00,Wunderground v.1.15,2013-03-14 06:20:00,
2013-03-14 02:30:00,27.8,21.5,30.32,West,274,1.0,1.0,77,0.00,,,0.00,Wunderground v.1.15,2013-03-14 06:30:00,
2013-03-14 02:40:00,28.1,21.2,30.33,West,264,2.0,2.0,75,0.00,,,0.00,Wunderground v.1.15,2013-03-14 06:40:00,
2013-03-14 02:50:00,28.1,20.9,30.33,WSW,248,2.0,2.0,74,0.00,,,0.00,Wunderground v.1.15,2013-03-14 06:50:00,
2013-03-14 02:59:00,28.1,20.6,30.33,West,260,1.0,1.0,73,0.00,,,0.00,Wunderground v.1.15,2013-03-14 06:59:00,
2013-03-14 03:05:00,27.9,20.0,30.33,West,261,1.0,1.0,72,0.00,,,0.00,Wunderground v.1.15,2013-03-14 07:05:00,
2013-03-14 03:15:00,27.8,19.9,30.33,West,263,1.0,4.0,72,0.00,,,0.00,Wunderground v.1.15,2013-03-14 07:15:00,
2013-03-14 03:25:00,27.8,19.9,30.32,West,261,2.0,2.0,72,0.00,,,0.00,Wunderground v.1.15,2013-03-14 07:25:00,
2013-03-14 03:30:00,27.6,19.8,30.32,West,271,1.0,1.0,72,0.00,,,0.00,Wunderground v.1.15,2013-03-14 07:30:00,
2013-03-14 03:40:00,27.5,20.0,30.32,WNW,291,1.0,1.0,73,0.00,,,0.00,Wunderground v.1.15,2013-03-14 07:40:00,
2013-03-14 03:50:00,27.2,19.7,30.32,West,274,1.0,2.0,73,0.00,,,0.00,Wunderground v.1.15,2013-03-14 07:50:00,
2013-03-14 04:00:00,27.2,20.0,30.32,West,281,1.0,1.0,74,0.00,,,0.00,Wunderground v.1.15,2013-03-14 08:00:00,
2013-03-14 04:05:00,27.2,20.0,30.32,West,281,1.0,2.0,74,0.00,,,0.00,Wunderground v.1.15,2013-03-14 08:05:00,
2013-03-14 04:15:00,27.0,19.8,30.32,WNW,287,2.0,2.0,74,0.00,,,0.00,Wunderground v.1.15,2013-03-14 08:15:00,
2013-03-14 04:20:00,27.0,19.8,30.32,WNW,289,1.0,1.0,74,0.00,,,0.00,Wunderground v.1.15,2013-03-14 08:20:00,
2013-03-14 04:30:00,26.9,19.7,30.32,WNW,284,2.0,2.0,74,0.00,,,0.00,Wunderground v.1.15,2013-03-14 08:30:00,
2013-03-14 04:40:00,26.7,19.8,30.32,West,277,1.0,1.0,75,0.00,,,0.00,Wunderground v.1.15,2013-03-14 08:40:00,
2013-03-14 04:50:00,26.4,19.5,30.32,West,274,1.0,1.0,75,0.00,,,0.00,Wunderground v.1.15,2013-03-14 08:50:00,
2013-03-14 04:55:00,26.3,19.5,30.32,West,272,1.0,1.0,75,0.00,,,0.00,Wunderground v.1.15,2013-03-14 08:55:00,
2013-03-14 05:05:00,26.1,19.6,30.32,West,272,1.0,3.0,76,0.00,,,0.00,Wunderground v.1.15,2013-03-14 09:05:00,
2013-03-14 05:15:00,26.0,19.5,30.32,West,268,1.0,1.0,76,0.00,,,0.00,Wunderground v.1.15,2013-03-14 09:15:00,
2013-03-14 05:20:00,26.0,19.5,30.32,West,268,1.0,1.0,76,0.00,,,0.00,Wunderground v.1.15,2013-03-14 09:20:00,
2013-03-14 05:30:00,25.7,19.2,30.32,West,268,0.0,0.0,76,0.00,,,0.00,Wunderground v.1.15,2013-03-14 09:30:00,
2013-03-14 05:39:00,25.4,19.2,30.33,West,270,0.0,0.0,77,0.00,,,0.00,Wunderground v.1.15,2013-03-14 09:39:00,
2013-03-14 05:45:00,25.4,19.2,30.33,West,270,1.0,1.0,77,0.00,,,0.00,Wunderground v.1.15,2013-03-14 09:45:00,
2013-03-14 05:55:00,25.3,19.4,30.34,West,271,0.0,2.0,78,0.00,,,0.00,Wunderground v.1.15,2013-03-14 09:55:00,
2013-03-14 06:00:00,25.1,19.2,30.34,West,271,1.0,1.0,78,0.00,,,0.00,Wunderground v.1.15,2013-03-14 10:00:00,
2013-03-14 06:10:00,25.1,19.2,30.34,West,271,0.0,0.0,78,0.00,,,0.00,Wunderground v.1.15,2013-03-14 10:10:00,
2013-03-14 06:20:00,24.8,18.9,30.35,West,271,0.0,1.0,78,0.00,,,0.00,Wunderground v.1.15,2013-03-14 10:20:00,
2013-03-14 06:30:00,24.8,18.9,30.35,West,275,1.0,1.0,78,0.00,,,0.00,Wunderground v.1.15,2013-03-14 10:30:00,
2013-03-14 06:35:00,24.7,18.8,30.36,West,275,0.0,1.0,78,0.00,,,0.00,Wunderground v.1.15,2013-03-14 10:35:00,
2013-03-14 06:45:00,24.5,18.9,30.36,West,275,0.0,2.0,79,0.00,,,0.00,Wunderground v.1.15,2013-03-14 10:45:00,
2013-03-14 06:55:00,24.2,18.6,30.36,West,275,0.0,0.0,79,0.00,,,0.00,Wunderground v.1.15,2013-03-14 10:55:00,
2013-03-14 07:00:00,24.2,18.6,30.36,West,275,0.0,0.0,79,0.00,,,0.00,Wunderground v.1.15,2013-03-14 11:00:00,
2013-03-14 07:10:00,24.1,18.8,30.37,West,275,1.0,1.0,80,0.00,,,0.00,Wunderground v.1.15,2013-03-14 11:10:00,
2013-03-14 07:20:00,23.9,18.6,30.37,West,272,0.0,0.0,80,0.00,,,0.00,Wunderground v.1.15,2013-03-14 11:20:00,
2013-03-14 07:25:00,23.9,18.6,30.37,West,272,0.0,0.0,80,0.00,,,0.00,Wunderground v.1.15,2013-03-14 11:25:00,
2013-03-14 07:35:00,23.9,18.6,30.37,West,272,0.0,0.0,80,0.00,,,0.00,Wunderground v.1.15,2013-03-14 11:35:00,
2013-03-14 07:45:00,23.8,18.5,30.37,West,272,0.0,1.0,80,0.00,,,0.00,Wunderground v.1.15,2013-03-14 11:45:00,
2013-03-14 07:50:00,23.8,18.5,30.37,West,272,0.0,0.0,80,0.00,,,0.00,Wunderground v.1.15,2013-03-14 11:50:00,
2013-03-14 08:00:00,23.6,18.3,30.37,West,271,0.0,0.0,80,0.00,,,0.00,Wunderground v.1.15,2013-03-14 12:00:00,
2013-03-14 08:09:00,23.8,18.5,30.37,West,272,0.0,2.0,80,0.00,,,0.00,Wunderground v.1.15,2013-03-14 12:09:00,
2013-03-14 08:15:00,24.1,18.8,30.37,West,272,0.0,2.0,80,0.00,,,0.00,Wunderground v.1.15,2013-03-14 12:15:00,
2013-03-14 08:25:00,24.7,19.4,30.37,West,272,0.0,1.0,80,0.00,,,0.00,Wunderground v.1.15,2013-03-14 12:25:00,
2013-03-14 08:30:00,25.0,19.4,30.37,West,268,0.0,0.0,79,0.00,,,0.00,Wunderground v.1.15,2013-03-14 12:30:00,
2013-03-14 08:40:00,25.6,19.7,30.37,West,268,1.0,1.0,78,0.00,,,0.00,Wunderground v.1.15,2013-03-14 12:40:00,
2013-03-14 08:50:00,26.1,19.9,30.37,WSW,257,1.0,1.0,77,0.00,,,0.00,Wunderground v.1.15,2013-03-14 12:50:00,
2013-03-14 08:59:00,26.7,20.1,30.37,WSW,240,1.0,2.0,76,0.00,,,0.00,Wunderground v.1.15,2013-03-14 12:59:00,
2013-03-14 09:05:00,27.0,20.1,30.37,WSW,258,1.0,4.0,75,0.00,,,0.00,Wunderground v.1.15,2013-03-14 13:05:00,
2013-03-14 09:10:00,27.5,20.6,30.37,West,261,1.0,1.0,75,0.00,,,0.00,Wunderground v.1.15,2013-03-14 13:10:00,
2013-03-14 09:20:00,27.9,20.4,30.37,WSW,253,1.0,2.0,73,0.00,,,0.00,Wunderground v.1.15,2013-03-14 13:20:00,
2013-03-14 09:30:00,28.8,20.6,30.37,West,261,1.0,1.0,71,0.00,,,0.00,Wunderground v.1.15,2013-03-14 13:30:00,
2013-03-14 09:40:00,29.7,20.8,30.37,West,261,1.0,1.0,69,0.00,,,0.00,Wunderground v.1.15,2013-03-14 13:40:00,
2013-03-14 09:49:00,30.4,20.7,30.37,West,275,1.0,1.0,67,0.00,,,0.00,Wunderground v.1.15,2013-03-14 13:49:00,
2013-03-14 09:55:00,30.7,20.3,30.37,WSW,253,2.0,2.0,65,0.00,,,0.00,Wunderground v.1.15,2013-03-14 13:55:00,
2013-03-14 10:05:00,31.0,20.6,30.38,West,281,1.0,1.0,65,0.00,,,0.00,Wunderground v.1.15,2013-03-14 14:05:00,
2013-03-14 10:10:00,31.5,21.1,30.38,West,281,1.0,1.0,65,0.00,,,0.00,Wunderground v.1.15,2013-03-14 14:10:00,
2013-03-14 10:20:00,32.7,21.5,30.38,West,267,1.0,1.0,63,0.00,,,0.00,Wunderground v.1.15,2013-03-14 14:20:00,
2013-03-14 10:30:00,32.7,20.3,30.38,WSW,247,1.0,3.0,60,0.00,,,0.00,Wunderground v.1.15,2013-03-14 14:30:00,
2013-03-14 10:35:00,32.5,19.7,30.38,WSW,256,1.0,3.0,59,0.00,,,0.00,Wunderground v.1.15,2013-03-14 14:35:00,
2013-03-14 10:45:00,33.5,19.9,30.38,West,281,1.0,1.0,57,0.00,,,0.00,Wunderground v.1.15,2013-03-14 14:45:00,
2013-03-14 10:55:00,34.1,19.2,30.38,West,272,1.0,3.0,54,0.00,,,0.00,Wunderground v.1.15,2013-03-14 14:55:00,
2013-03-14 11:00:00,33.5,18.2,30.38,West,260,2.0,3.0,53,0.00,,,0.00,Wunderground v.1.15,2013-03-14 15:00:00,
2013-03-14 11:10:00,33.8,18.9,30.38,West,275,1.0,1.0,54,0.00,,,0.00,Wunderground v.1.15,2013-03-14 15:10:00,
2013-03-14 11:20:00,35.0,18.2,30.37,West,272,1.0,3.0,50,0.00,,,0.00,Wunderground v.1.15,2013-03-14 15:20:00,
2013-03-14 11:29:00,35.3,18.0,30.37,NW,326,3.0,3.0,49,0.00,,,0.00,Wunderground v.1.15,2013-03-14 15:29:00,
2013-03-14 11:35:00,35.5,17.7,30.36,WNW,301,2.0,3.0,48,0.00,,,0.00,Wunderground v.1.15,2013-03-14 15:35:00,
2013-03-14 11:45:00,36.2,18.9,30.36,West,281,2.0,2.0,49,0.00,,,0.00,Wunderground v.1.15,2013-03-14 15:45:00,
2013-03-14 11:55:00,36.6,18.2,30.36,WNW,284,2.0,2.0,47,0.00,,,0.00,Wunderground v.1.15,2013-03-14 15:55:00,
2013-03-14 12:00:00,36.6,17.7,30.36,West,265,2.0,2.0,46,0.00,,,0.00,Wunderground v.1.15,2013-03-14 16:00:00,
2013-03-14 12:10:00,37.5,19.1,30.36,WNW,285,2.0,6.0,47,0.00,,,0.00,Wunderground v.1.15,2013-03-14 16:10:00,
2013-03-14 12:20:00,37.5,18.6,30.35,West,281,2.0,2.0,46,0.00,,,0.00,Wunderground v.1.15,2013-03-14 16:20:00,
2013-03-14 12:30:00,38.2,18.7,30.35,SW,217,2.0,2.0,45,0.00,,,0.00,Wunderground v.1.15,2013-03-14 16:30:00,
2013-03-14 12:39:00,38.3,17.7,30.34,SSW,193,2.0,7.0,43,0.00,,,0.00,Wunderground v.1.15,2013-03-14 16:39:00,
2013-03-14 12:45:00,37.9,17.9,30.34,WSW,253,4.0,7.0,44,0.00,,,0.00,Wunderground v.1.15,2013-03-14 16:45:00,
2013-03-14 12:55:00,39.1,16.2,30.33,West,281,3.0,9.0,39,0.00,,,0.00,Wunderground v.1.15,2013-03-14 16:55:00,
2013-03-14 13:05:00,39.6,16.6,30.33,WNW,289,3.0,3.0,39,0.00,,,0.00,Wunderground v.1.15,2013-03-14 17:05:00,
2013-03-14 13:10:00,39.9,17.5,30.33,West,265,2.0,7.0,40,0.00,,,0.00,Wunderground v.1.15,2013-03-14 17:10:00,
2013-03-14 13:20:00,40.6,18.7,30.32,West,274,2.0,2.0,41,0.00,,,0.00,Wunderground v.1.15,2013-03-14 17:20:00,
2013-03-14 13:30:00,41.1,18.0,30.32,West,261,3.0,5.0,39,0.00,,,0.00,Wunderground v.1.15,2013-03-14 17:30:00,
2013-03-14 13:39:00,41.5,18.9,30.31,West,260,3.0,3.0,40,0.00,,,0.00,Wunderground v.1.15,2013-03-14 17:39:00,
2013-03-14 13:45:00,41.5,17.7,30.31,SW,229,3.0,3.0,38,0.00,,,0.00,Wunderground v.1.15,2013-03-14 17:45:00,
2013-03-14 13:55:00,41.9,16.2,30.31,WSW,256,2.0,3.0,35,0.00,,,0.00,Wunderground v.1.15,2013-03-14 17:55:00,
2013-03-14 14:00:00,41.5,17.1,30.31,West,264,4.0,4.0,37,0.00,,,0.00,Wunderground v.1.15,2013-03-14 18:00:00,
2013-03-14 14:10:00,42.8,16.3,30.30,WSW,246,3.0,7.0,34,0.00,,,0.00,Wunderground v.1.15,2013-03-14 18:10:00,
2013-03-14 14:20:00,42.5,16.7,30.28,West,268,2.0,3.0,35,0.00,,,0.00,Wunderground v.1.15,2013-03-14 18:20:00,
2013-03-14 14:30:00,43.1,15.2,30.28,West,268,3.0,3.0,32,0.00,,,0.00,Wunderground v.1.15,2013-03-14 18:30:00,
2013-03-14 14:40:00,43.1,15.9,30.28,NW,319,3.0,3.0,33,0.00,,,0.00,Wunderground v.1.15,2013-03-14 18:40:00,
2013-03-14 14:49:00,43.3,16.8,30.27,West,264,3.0,3.0,34,0.00,,,0.00,Wunderground v.1.15,2013-03-14 18:49:00,
2013-03-14 14:55:00,43.8,16.5,30.27,West,274,3.0,3.0,33,0.00,,,0.00,Wunderground v.1.15,2013-03-14 18:55:00,
2013-03-14 15:04:00,44.2,15.4,30.26,WSW,250,4.0,11.0,31,0.00,,,0.00,Wunderground v.1.15,2013-03-14 19:04:00,
2013-03-14 15:09:00,44.5,17.1,30.26,South,171,4.0,4.0,33,0.00,,,0.00,Wunderground v.1.15,2013-03-14 19:09:00,
2013-03-14 15:15:00,44.3,17.7,30.26,SSW,206,3.0,5.0,34,0.00,,,0.00,Wunderground v.1.15,2013-03-14 19:15:00,
2013-03-14 15:20:00,44.8,16.0,30.25,SW,219,4.0,4.0,31,0.00,,,0.00,Wunderground v.1.15,2013-03-14 19:20:00,
2013-03-14 15:30:00,44.3,14.8,30.25,SSW,192,5.0,5.0,30,0.00,,,0.00,Wunderground v.1.15,2013-03-14 19:30:00,
2013-03-14 15:40:00,44.6,15.0,30.25,SW,222,3.0,8.0,30,0.00,,,0.00,Wunderground v.1.15,2013-03-14 19:40:00,
2013-03-14 15:50:00,45.2,14.8,30.24,WSW,239,4.0,4.0,29,0.00,,,0.00,Wunderground v.1.15,2013-03-14 19:50:00,
2013-03-14 16:00:00,45.8,16.1,30.24,SSW,200,3.0,3.0,30,0.00,,,0.00,Wunderground v.1.15,2013-03-14 20:00:00,
2013-03-14 16:09:00,45.5,12.5,30.23,West,265,4.0,4.0,26,0.00,,,0.00,Wunderground v.1.15,2013-03-14 20:09:00,
2013-03-14 16:15:00,45.4,14.1,30.23,WNW,289,6.0,6.0,28,0.00,,,0.00,Wunderground v.1.15,2013-03-14 20:15:00,
2013-03-14 16:25:00,47.0,14.7,30.23,SW,222,2.0,5.0,27,0.00,,,0.00,Wunderground v.1.15,2013-03-14 20:25:00,
2013-03-14 16:35:00,46.2,12.3,30.22,WNW,284,4.0,4.0,25,0.00,,,0.00,Wunderground v.1.15,2013-03-14 20:35:00,
2013-03-14 16:40:00,46.0,12.1,30.22,North,8,3.0,3.0,25,0.00,,,0.00,Wunderground v.1.15,2013-03-14 20:40:00,
2013-03-14 16:50:00,45.7,12.7,30.22,West,281,4.0,4.0,26,0.00,,,0.00,Wunderground v.1.15,2013-03-14 20:50:00,
2013-03-14 17:00:00,45.8,12.8,30.22,West,261,4.0,4.0,26,0.00,,,0.00,Wunderground v.1.15,2013-03-14 21:00:00,
2013-03-14 17:10:00,45.7,12.7,30.22,West,268,3.0,3.0,26,0.00,,,0.00,Wunderground v.1.15,2013-03-14 21:10:00,
2013-03-14 17:20:00,46.1,13.1,30.22,West,270,3.0,7.0,26,0.00,,,0.00,Wunderground v.1.15,2013-03-14 21:20:00,
2013-03-14 17:29:00,45.1,12.2,30.22,WNW,292,3.0,6.0,26,0.00,,,0.00,Wunderground v.1.15,2013-03-14 21:29:00,
2013-03-14 17:39:00,44.6,11.8,30.22,West,281,3.0,4.0,26,0.00,,,0.00,Wunderground v.1.15,2013-03-14 21:39:00,
2013-03-14 17:45:00,44.8,11.9,30.22,West,280,3.0,4.0,26,0.00,,,0.00,Wunderground v.1.15,2013-03-14 21:45:00,
2013-03-14 17:55:00,44.9,12.0,30.22,WNW,282,5.0,10.0,26,0.00,,,0.00,Wunderground v.1.15,2013-03-14 21:55:00,
2013-03-14 18:05:00,44.9,12.9,30.21,WNW,282,3.0,6.0,27,0.00,,,0.00,Wunderground v.1.15,2013-03-14 22:05:00,
2013-03-14 18:10:00,44.6,13.5,30.21,West,268,3.0,3.0,28,0.00,,,0.00,Wunderground v.1.15,2013-03-14 22:10:00,
2013-03-14 18:20:00,44.2,13.1,30.22,West,277,3.0,3.0,28,0.00,,,0.00,Wunderground v.1.15,2013-03-14 22:20:00,
2013-03-14 18:29:00,44.1,13.8,30.22,West,260,2.0,2.0,29,0.00,,,0.00,Wunderground v.1.15,2013-03-14 22:29:00,
2013-03-14 18:40:00,43.8,14.3,30.22,WNW,282,1.0,2.0,30,0.00,,,0.00,Wunderground v.1.15,2013-03-14 22:40:00,
2013-03-14 18:50:00,43.5,14.8,30.22,WNW,282,2.0,2.0,31,0.00,,,0.00,Wunderground v.1.15,2013-03-14 22:50:00,
2013-03-14 18:59:00,43.8,15.1,30.22,WNW,291,1.0,1.0,31,0.00,,,0.00,Wunderground v.1.15,2013-03-14 22:59:00,
2013-03-14 19:05:00,43.8,15.1,30.22,WNW,294,2.0,2.0,31,0.00,,,0.00,Wunderground v.1.15,2013-03-14 23:05:00,
2013-03-14 19:15:00,43.2,14.6,30.22,WNW,284,2.0,2.0,31,0.00,,,0.00,Wunderground v.1.15,2013-03-14 23:15:00,
2013-03-14 19:20:00,42.9,15.0,30.22,West,271,1.0,3.0,32,0.00,,,0.00,Wunderground v.1.15,2013-03-14 23:20:00,
2013-03-14 19:30:00,42.2,15.1,30.22,WNW,298,1.0,1.0,33,0.00,,,0.00,Wunderground v.1.15,2013-03-14 23:30:00,
2013-03-14 19:40:00,41.6,15.3,30.22,WNW,298,0.0,0.0,34,0.00,,,0.00,Wunderground v.1.15,2013-03-14 23:40:00,
2013-03-14 19:50:00,41.1,15.5,30.22,WNW,296,0.0,0.0,35,0.00,,,0.00,Wunderground v.1.15,2013-03-14 23:50:00,
2013-03-14 20:00:00,40.5,15.6,30.22,WNW,296,0.0,0.0,36,0.00,,,0.00,Wunderground v.1.15,2013-03-15 00:00:00,
2013-03-14 20:09:00,40.1,15.2,30.22,WNW,296,0.0,0.0,36,0.00,,,0.00,Wunderground v.1.15,2013-03-15 00:09:00,
2013-03-14 20:15:00,39.8,15.6,30.22,WNW,296,0.0,2.0,37,0.00,,,0.00,Wunderground v.1.15,2013-03-15 00:15:00,
2013-03-14 20:20:00,39.5,16.6,30.22,WNW,296,0.0,0.0,39,0.00,,,0.00,Wunderground v.1.15,2013-03-15 00:20:00,
2013-03-14 20:30:00,38.5,17.4,30.22,WNW,296,0.0,0.0,42,0.00,,,0.00,Wunderground v.1.15,2013-03-15 00:30:00,
2013-03-14 20:40:00,37.5,18.6,30.22,WNW,296,0.0,0.0,46,0.00,,,0.00,Wunderground v.1.15,2013-03-15 00:40:00,
2013-03-14 20:49:00,36.8,19.4,30.22,WNW,296,0.0,0.0,49,0.00,,,0.00,Wunderground v.1.15,2013-03-15 00:49:00,
2013-03-14 20:55:00,36.3,18.9,30.22,WNW,296,0.0,0.0,49,0.00,,,0.00,Wunderground v.1.15,2013-03-15 00:55:00,
2013-03-14 21:05:00,36.2,18.9,30.22,WNW,296,0.0,0.0,49,0.00,,,0.00,Wunderground v.1.15,2013-03-15 01:05:00,
2013-03-14 21:10:00,36.2,18.4,30.22,WNW,296,0.0,4.0,48,0.00,,,0.00,Wunderground v.1.15,2013-03-15 01:10:00,
2013-03-14 21:20:00,36.9,17.5,30.22,WNW,296,0.0,0.0,45,0.00,,,0.00,Wunderground v.1.15,2013-03-15 01:20:00,
2013-03-14 21:30:00,36.9,17.5,30.22,WNW,296,0.0,0.0,45,0.00,,,0.00,Wunderground v.1.15,2013-03-15 01:30:00,
2013-03-14 21:39:00,36.5,18.2,30.22,WNW,296,0.0,0.0,47,0.00,,,0.00,Wunderground v.1.15,2013-03-15 01:39:00,
2013-03-14 21:45:00,36.2,18.4,30.22,WNW,296,0.0,0.0,48,0.00,,,0.00,Wunderground v.1.15,2013-03-15 01:45:00,
2013-03-14 21:55:00,35.8,18.5,30.22,WNW,296,0.0,0.0,49,0.00,,,0.00,Wunderground v.1.15,2013-03-15 01:55:00,
2013-03-14 22:05:00,34.9,19.5,30.22,WNW,296,0.0,0.0,53,0.00,,,0.00,Wunderground v.1.15,2013-03-15 02:05:00,
2013-03-14 22:10:00,34.3,19.4,30.22,WNW,296,0.0,0.0,54,0.00,,,0.00,Wunderground v.1.15,2013-03-15 02:10:00,
2013-03-14 22:20:00,33.4,19.8,30.22,WNW,296,0.0,0.0,57,0.00,,,0.00,Wunderground v.1.15,2013-03-15 02:20:00,
2013-03-14 22:30:00,32.8,19.2,30.22,WNW,296,0.0,0.0,57,0.00,,,0.00,Wunderground v.1.15,2013-03-15 02:30:00,
2013-03-14 22:35:00,32.7,19.5,30.22,WNW,296,0.0,0.0,58,0.00,,,0.00,Wunderground v.1.15,2013-03-15 02:35:00,
2013-03-14 22:45:00,32.4,20.0,30.22,WNW,296,0.0,0.0,60,0.00,,,0.00,Wunderground v.1.15,2013-03-15 02:45:00,
2013-03-14 22:50:00,32.1,19.8,30.22,WNW,296,0.0,0.0,60,0.00,,,0.00,Wunderground v.1.15,2013-03-15 02:50:00,
2013-03-14 22:59:00,31.8,19.5,30.22,WNW,296,0.0,0.0,60,0.00,,,0.00,Wunderground v.1.15,2013-03-15 02:59:00,
2013-03-14 23:05:00,31.5,19.6,30.22,WNW,296,0.0,0.0,61,0.00,,,0.00,Wunderground v.1.15,2013-03-15 03:05:00,
2013-03-14 23:10:00,31.3,19.4,30.22,WNW,296,0.0,0.0,61,0.00,,,0.00,Wunderground v.1.15,2013-03-15 03:10:00,
2013-03-14 23:20:00,31.2,19.7,30.22,WNW,296,0.0,0.0,62,0.00,,,0.00,Wunderground v.1.15,2013-03-15 03:20:00,
2013-03-14 23:30:00,30.9,19.4,30.22,WNW,296,0.0,0.0,62,0.00,,,0.00,Wunderground v.1.15,2013-03-15 03:30:00,
2013-03-14 23:40:00,30.4,20.0,30.22,WNW,296,0.0,0.0,65,0.00,,,0.00,Wunderground v.1.15,2013-03-15 03:40:00,
2013-03-14 23:50:00,29.8,19.8,30.22,WNW,296,0.0,0.0,66,0.00,,,0.00,Wunderground v.1.15,2013-03-15 03:50:00,